Location: Quebec
(46.8000°N, 71.2500°W)
Time: 17:55:43
(UTC-04:00)

Envisat - Pass Details

Date: 13 October 2017
Orbit: 764 x 766 km, 98.2° (Epoch: 19 October)

Event Time Altitude Azimuth Distance (km) Brightness Sun altitude
Exits shadow 20:56:59 50° 250° (WSW) 976 3.7 -30.4°
Maximum altitude 20:57:15 50° 261° (W) 970 3.7 -30.5°
Drops below altitude 10° 21:02:12 10° 337° (NNW) 2,312 6.0 -31.2°
Sets 21:04:36 0° 342° (NNW) 3,243 6.8 -31.6°
